Flight Briefing for CPX429

Departure Arrival
Portland International Jetport (KPWM)
Click to view FAA NOTAMS
Washington Dulles International Airport (KIAD)
Click to view FAA NOTAMS
Departure Time Arrival Time
N/A N/A
Aircraft Distance
B757-200SF 429nm
Departure METAR Arrival METAR
KPWM 250251Z 29004KT 10SM SCT250 09/06 A3010 RMK AO2 SLP192 T00940061 51018 KIAD 250252Z 00000KT 10SM FEW085 19/12 A3010 RMK AO2 SLP191 T01890117 53011
Suggested Route
NUBLE3 BAF HYPER7


View recent IFR Routes data
Notes
LOBSTER KING

Charts and Procedures

Charts for KPWM
No chart available
Charts for KIAD
No chart available

Windy.com Weather Map